Tracking 29777 objects as of 5-Oct-2024
HD Live streaming from Space Station
objects crossing your sky now

STARLINK 1059

Track STARLINK 1059 now!
10-day predictions
STARLINK 1059 is classified as:


NORAD ID: 44764
Int'l Code: 2019-074BD
Perigee: 372.6 km
Apogee: 380.2 km
Inclination: 53.1 °
Period: 91.9 minutes
Semi major axis: 6747 km
RCS: Unknown
Launch date: November 11, 2019
Source: United States (US)
Launch site: AIR FORCE EASTERN TEST RANGE (AFETR)
Your satellite tracking list
Your tracking list is empty




NASA's NSSDC Master Catalog

Two Line Element Set (TLE):
1 44764U 19074BD  24278.91667824  .00283858  00000-0  25960-2 0  9990
2 44764  53.0720 278.2936 0005657  14.4382  86.5109 15.66389795  5740
Source of the keplerian elements: AFSPC